Отроков

Украина / Хмельницкая область     48°48′41″N   27°06′46″E
темп.,
°C
ветер,
м/с
пор.,
м/с
влажн.,
%
обл.,
%
осадки,
мм/ч
давл.,
гПа
погр.,
м
9 мая, вс
вс900:00+3зсз38852 0.0 1022145
03:00+2зсз35910 0.0 102395
06:00+2зсз35925 0.0 102490
09:00+8сз34665 0.0 1025518
12:00+12сз364769 0.0 10252016
15:00+14сз354195 0.0 10242101
18:00+15ссз134129 0.0 10231885
21:00+9юв33635 0.0 102532
10 мая, пн
пн1000:00+7ююв34675 0.0 102645
03:00+6юв336912 0.0 102631
06:00+6юв33705 0.0 102533
09:00+12юв59565 0.0 1026487
12:00+16юв784744 0.0 10251284
15:00+18юв674652 0.0 10231479
18:00+18юв56546 0.0 10221334
21:00+11в48750 0.0 1023115
11 мая, вт
вт1100:00+9в36760 0.0 102387
03:00+8в410780 0.0 1023176
06:00+7в37810 0.0 1023115
09:00+12вюв57630 0.0 1022453
12:00+16вюв45450 0.0 10211142
15:00+18вюв44370 0.0 10191296
18:00+18в45545 0.0 10171143
21:00+13всв22816 0.0 101724
12 мая, ср
ср1200:00+11всв228923 0.0 101625
03:00+11всв499426 0.0 1015228
06:00+10в6108698 0.0 1015489
09:00+10в79729 0.0 1015752
12:00+13в775819 0.0 10141351
15:00+14в775755 0.0 10131513
18:00+13вюв675810 0.0 10121118
21:00+8вюв387643 0.0 1012159
13 мая, чт
чт1300:00+9вюв5107099 0.0 1011386
03:00+9юв51167100 0.0 1009505
06:00+9юв6137497 0.0 1008625
09:00+11ююв81372100 0.0 1008787
12:00+14ююв91370100 0.0 10071258
15:00+10юв71492100 1.1 1008848
18:00+11юв61290100 0.3 1007820
21:00+11вюв3791100 0.3 1007252